Regional Weather Roundup
Issued by NWS Upton, NY

Current Version | Previous Version | Text Only | Print | Product List | Glossary On
Versions: 1 2 3 4 5 6 7 8 9 10 11 12 13 14 15 16 17 18 19 20 21 22 23 24 25 26 27 28 29 30 31 32 33 34 35 36 37 38 39 40 41 42 43 44 45 46 47 48 49 50
000 ASUS41 KOKX 230318 RWROKX REGIONAL WEATHER ROUNDUP NATIONAL WEATHER SERVICE NEW YORK NY 1100 PM EDT FRI MAY 22 2015 NOTE: "FAIR" INDICATES FEW OR NO CLOUDS BELOW 12,000 FEET WITH NO SIGNIFICANT WEATHER AND/OR OBSTRUCTIONS TO VISIBILITY. NYZ071-072-176-178-NJZ106-104-230400- NEW YORK CITY METRO AREA CITY SKY/WX TMP DP RH WIND PRES REMARKS CENTRAL PARK PTCLDY 63 32 31 VRB3 30.15R LAGUARDIA APRT PTCLDY 63 33 32 NW21 30.11R KENNEDY INTL PTCLDY 65 30 27 N20 30.12R NEWARK/LIBERTY PTCLDY 63 34 33 NW18G25 30.13R BRNX BOT. GARD N/A 61 32 33 NW8 30.13R TETERBORO PTCLDY 61 32 33 N10 30.12R $$ NYZ177-179-078>081-230400- LONG ISLAND NEW YORK CITY SKY/WX TMP DP RH WIND PRES REMARKS FARMINGDALE MOCLDY 63 32 31 N10 30.10R ISLIP MOCLDY 61 33 35 N14 30.08R SHIRLEY PTCLDY 61 32 33 N13 30.10R WESTHAMPTON MOCLDY 61 34 36 N8 30.10R MONTAUK POINT N/A 57 40 52 NW8 30.08R $$ NYZ052-065-067-230400- HUDSON VALLEY CITY SKY/WX TMP DP RH WIND PRES REMARKS WHITE PLAINS PTCLDY 57 32 38 NW12 30.11R NEWBURGH CLEAR 54 36 50 NW9 30.14R MONTGOMERY CLEAR 54 34 46 NW5 30.14R POUGHKEEPSIE CLEAR 55 32 41 NW3 30.13R ALBANY FAIR 51 23 33 W13 30.12R $$ NJZ001-105-106-008-010-013-015-019>022-104-230400- NEW JERSEY CITY SKY/WX TMP DP RH WIND PRES REMARKS NEWARK/LIBERTY PTCLDY 63 34 33 NW18G25 30.13R TETERBORO PTCLDY 61 32 33 N10 30.12R CALDWELL CLEAR 59 33 37 N3 30.14R MORRISTOWN CLEAR 61 32 33 N5 30.14R SOMERVILLE FAIR 56 40 55 CALM 30.13R SUSSEX CLEAR 53 34 48 CALM 30.17R ANDOVER N/A 53 36 52 N5 30.16R TRENTON CLEAR 60 36 40 N8 30.14R MILLVILLE CLEAR 61 45 55 W7 30.15R ATLANTIC CITY CLEAR 57 44 62 W3 30.13R WRIGHTSTOWN CLEAR 64 32 30 N8 30.11R TOMS RIVER CLEAR 59 37 44 NW8 30.12R BELMAR PTCLDY 55 43 62 NW6 30.12R $$ PAZ047>061-062-071-230400- EASTERN PENNSYLVANIA CITY SKY/WX TMP DP RH WIND PRES REMARKS PHILADELPHIA CLEAR 68 25 19 NW16G23 30.16R ALLENTOWN CLEAR 55 37 50 NW3 30.17R SCRANTON CLEAR 54 32 43 N13 30.20R $$ CTZ002-004>006-009-010-012-RIZ004-006-007-MAZ004-011-015-230400- SOUTHERN NEW ENGLAND IN CT CITY SKY/WX TMP DP RH WIND PRES REMARKS BRADLEY INTL PTCLDY 53 28 38 VRB5 30.09R HARTFORD CLEAR 57 27 31 VRB6 30.10R DANBURY CLEAR 55 30 38 VRB5 30.13R WTRBRY/OXFORD PTCLDY 52 30 43 NW6 30.13R BRIDGEPORT PTCLDY 60 32 34 N14 30.09R MERIDEN PTCLDY 55 31 39 NW5 30.11R NEW HAVEN PTCLDY 58 31 35 N10 30.09R CHESTER FAIR 55 30 38 N10G18 30.10R GROTON MOCLDY 59 28 30 N15 30.06R WILLIMANTIC CLEAR 56 28 34 NW5 30.09R IN RI CITY SKY/WX TMP DP RH WIND PRES REMARKS PROVIDENCE CLEAR 58 24 27 NW12 30.07R BLOCK ISLAND PTCLDY 57 34 41 N12 30.06R WESTERLY MOCLDY 59 29 31 N15G22 30.07R IN MA CITY SKY/WX TMP DP RH WIND PRES REMARKS BOSTON PTCLDY 59 25 27 W15 30.03R WORCESTER CLEAR 53 21 28 W18G28 30.06R WESTFIELD CLEAR 51 29 42 CALM 30.09R PROVINCETOWN PTCLDY 55 39 54 N6 30.04R NANTUCKET CLEAR 59 42 53 NW16 30.03R $$ ANZ330-335-338-340-345-350-353-355-230400- COASTAL MARINE OBSERVATIONS STATION/POSITION TIME SKY/WX TEMP WIND PRES VSBY WAVE AIR SEA DIR/SP/G HT/PER (UTC) (F) (DEG/KT/KT) (MB) (MI) (FT/S) NY HARB ENTRANCE 0250 59 57 280/ 8/ 12 1018.7 2/ 8 4S FIRE IS 0203 55 N/A 2/ 7 20S FIRE ISLAND 0250 61 56 300/ 14/ 17 1018.3 3/ 7 GREAT SOUTH BAY 0200 65 63 330/ 12/ 14 N/A 23SW MTP 0250 57 53 310/ 8/ 10 1017.9 2/ 4 HUDSON CANYON NOT AVBL KINGS POINT 0200 63 57 10/ 13/ 16 1017.8 CENTRAL LI SOUND NOT AVBL EASTERN LI SOUND 0200 58 340/ 12/ 16 N/A ROBBINS REEF 0200 65 340/ 13/ 17 1017.6 $$ >>>>>>>>>>>>>>>>>>>>>>>>>>>> KEY <<<<<<<<<<<<<<<<<<<<<<<<<<< > < > SKY/WX - SKY CONDITION/PRESENT WEATHER < > TMP - TEMPERATURE IN FAHRENHEIT < > DP - DEWPOINT IN FAHRENHEIT < > RH - RELATIVE HUMIDITY IN PERCENT < > WIND - DIRECTION AND SPEED IN MPH < > PRES - MEAN SEA LEVEL PRESSURE IN INCHES OF HG < > WCI - WIND CHILL INDEX < > VSB - VISIBILITY IN MILES < > HX - HEAT INDEX < > TC - TEMPERATURE IN CELSIUS < > VRB - VARIABLE WIND DIRECTION < > < >>>>>>>>>>>>>>>>>>>>>>>>>>>> KEY <<<<<<<<<<<<<<<<<<<<<<<<<<<

USA.gov is the U.S. government's official web portal to all federal, state and local government web resources and services.